Weather History for Fargo, ND

Change the Weather History Date:

Thursday, April 18, 2013

  Actual Average Record
Temperature  
Mean Temperature 34 °F 46 °F  
Max Temperature 37 °F 58 °F 90 °F (1987)
Min Temperature 30 °F 34 °F 12 °F (1988)
Degree Days  
Heating Degree Days 31 19  
Month to date heating degree days 639 431  
Since 1 July heating degree days 8700 8261  
Cooling Degree Days 0 0  
Month to date cooling degree days 0 0  
Year to date cooling degree days 0 0  
Moisture  
Dew Point 27 °F    
Average Humidity 79    
Maximum Humidity 92    
Minimum Humidity 66    
Precipitation  
Precipitation 0.08 in 0.04 in 1.16 in (1896)
Month to date precipitation 2.01 0.72  
Year to date precipitation 5.64 3.33  
Snow  
Snow 1.60 in 0.10 in 1.70 in (2011)
Month to date snowfall 16.4 2.1  
Since 1 July snowfall 68.1 49.2  
Snow Depth 9.00 in    
Sea Level Pressure  
Sea Level Pressure 29.97 in    
Wind  
Wind Speed 21 mph (NNW)    
Max Wind Speed 31 mph    
Max Gust Speed 36 mph    
Visibility 7 miles    
Events Snow    
T = Trace of Precipitation, MM = Missing Value Source: NWS Daily Summary

Daily Weather History Graph

Daily Weather History Graph

Search for Another Location

Airport:

Trip Planner

Search our weather history database for the weather conditions in past years. The results will help you decide how hot, cold, wet, or windy it might be!

Date:

Astronomy

Apr. 18, 2013 Rise Set
Actual Time 6:33 AM CDT 8:20 PM CDT
Civil Twilight 6:01 AM CDT 8:52 PM CDT
Nautical Twilight 5:22 AM CDT 9:32 PM CDT
Astronomical Twilight 4:39 AM CDT 10:15 PM CDT
Moon 12:42 PM CDT (4/18) 2:40 AM CDT (4/18)
Length of Visible Light 14h 51m
Length of Day
13h 46m
First Quarter, 52% of the Moon is Illuminated
Apr 18
First Quarter
Apr 25
Full
May 2
Last Quarter
May 9
New
May 17
First Quarter

Hourly Weather History & Observations

Time (CDT) Temp. Windchill Dew Point Humidity Pressure Visibility Wind Dir Wind Speed Gust Speed Precip Events Conditions
12:26 AM 32.0 °F 22.5 °F 28.4 °F 87% 30.11 in 3.0 mi North 12.7 mph - 0.00 in Snow Light Snow
12:53 AM 30.9 °F 20.7 °F 28.0 °F 89% 30.15 in 2.5 mi NNW 13.8 mph - 0.00 in Snow Light Snow
1:14 AM 30.2 °F 19.8 °F 28.4 °F 93% 30.09 in 1.5 mi NNW 13.8 mph - 0.01 in Snow Light Snow
1:53 AM 30.0 °F 17.9 °F 27.0 °F 88% 30.11 in 1.2 mi North 18.4 mph - 0.01 in Snow Light Snow
2:43 AM 30.2 °F 17.8 °F 26.6 °F 86% 30.04 in 3.0 mi North 19.6 mph - 0.01 in Snow Light Snow
2:53 AM 30.0 °F 16.9 °F 27.0 °F 88% 30.06 in 5.0 mi North 21.9 mph - 0.01 in   Overcast
3:43 AM 30.2 °F 18.1 °F 26.6 °F 86% 30.02 in 5.0 mi North 18.4 mph - 0.00 in Snow Light Snow
3:53 AM 30.0 °F 18.3 °F 27.0 °F 88% 30.05 in 6.0 mi North 17.3 mph - 0.00 in   Overcast
4:22 AM 30.2 °F 20.2 °F 26.6 °F 86% 30.04 in 9.0 mi North 12.7 mph - N/A   Overcast
4:53 AM 30.9 °F 19.1 °F 27.0 °F 85% 30.06 in 10.0 mi North 18.4 mph - 0.00 in   Overcast
5:21 AM 30.2 °F 18.1 °F 26.6 °F 86% 30.03 in 2.5 mi North 18.4 mph - 0.00 in Snow Light Snow
5:48 AM 30.2 °F 18.1 °F 26.6 °F 86% 30.01 in 1.5 mi North 18.4 mph - 0.00 in Snow Light Snow
5:53 AM 30.0 °F 18.3 °F 27.0 °F 88% 30.04 in 1.2 mi North 17.3 mph - 0.00 in Snow Light Snow
6:22 AM 30.2 °F 18.1 °F 26.6 °F 86% 30.00 in 2.0 mi NNW 18.4 mph - 0.00 in Snow Light Snow
6:53 AM 30.0 °F 17.5 °F 27.0 °F 88% 30.03 in 2.0 mi North 19.6 mph - 0.00 in Snow Light Snow
7:30 AM 30.2 °F 18.5 °F 26.6 °F 86% 29.98 in 3.0 mi North 17.3 mph - 0.00 in Snow Light Snow
7:53 AM 30.9 °F 19.8 °F 27.0 °F 85% 30.01 in 5.0 mi North 16.1 mph - 0.00 in   Overcast
8:53 AM 30.9 °F 19.1 °F 28.0 °F 89% 30.01 in 8.0 mi North 18.4 mph - 0.00 in   Overcast
9:53 AM 32.0 °F 20.5 °F 28.0 °F 85% 29.99 in 9.0 mi North 18.4 mph - N/A   Overcast
10:53 AM 32.0 °F 19.8 °F 28.0 °F 85% 29.97 in 8.0 mi North 20.7 mph - N/A   Overcast
11:53 AM 34.0 °F 22.4 °F 28.9 °F 82% 29.94 in 10.0 mi North 20.7 mph - N/A   Overcast
12:24 PM 35.6 °F 24.5 °F 28.4 °F 75% 29.90 in 10.0 mi North 20.7 mph 26.5 mph N/A   Overcast
12:32 PM 35.6 °F 24.8 °F 28.4 °F 75% 29.90 in 10.0 mi North 19.6 mph 27.6 mph N/A   Overcast
12:46 PM 35.6 °F 26.2 °F 28.4 °F 75% 29.91 in 10.0 mi North 15.0 mph 26.5 mph N/A   Overcast
12:53 PM 35.1 °F 24.1 °F 30.0 °F 82% 29.94 in 10.0 mi NNW 19.6 mph 26.5 mph N/A   Overcast
1:01 PM 35.6 °F 25.2 °F 30.2 °F 81% 29.91 in 10.0 mi North 18.4 mph - N/A   Overcast
1:27 PM 35.6 °F 25.5 °F 30.2 °F 81% 29.89 in 10.0 mi North 17.3 mph - N/A   Overcast
1:53 PM 36.0 °F 23.7 °F 27.0 °F 70% 29.93 in 10.0 mi North 26.5 mph 34.5 mph N/A   Overcast
2:53 PM 36.0 °F 23.9 °F 28.0 °F 73% 29.91 in 10.0 mi North 25.3 mph 31.1 mph N/A   Overcast
3:53 PM 37.0 °F 25.4 °F 28.9 °F 73% 29.90 in 10.0 mi NNW 25.3 mph - N/A   Partly Cloudy
4:53 PM 36.0 °F 23.2 °F 26.1 °F 67% 29.88 in 9.0 mi NNW 28.8 mph 35.7 mph 0.00 in Snow Light Snow
5:53 PM 36.0 °F 23.9 °F 26.1 °F 67% 29.89 in 10.0 mi NNW 25.3 mph - 0.00 in   Clear
6:53 PM 35.1 °F 22.7 °F 26.1 °F 70% 29.89 in 10.0 mi NNW 25.3 mph 33.4 mph N/A   Clear
7:53 PM 34.0 °F 21.8 °F 24.1 °F 67% 29.88 in 10.0 mi NNW 23.0 mph 31.1 mph N/A   Scattered Clouds
8:53 PM 33.1 °F 21.2 °F 24.1 °F 70% 29.88 in 10.0 mi NNW 20.7 mph - N/A   Clear
9:53 PM 32.0 °F 19.2 °F 23.0 °F 69% 29.89 in 10.0 mi NNW 23.0 mph - N/A   Clear
10:53 PM 30.9 °F 18.4 °F 23.0 °F 72% 29.88 in 10.0 mi NNW 20.7 mph - N/A   Clear
11:53 PM 30.9 °F 19.1 °F 23.0 °F 72% 29.87 in 10.0 mi NNW 18.4 mph - N/A   Clear